STEP 2

导读

STEP 2是美国于1994年5月19日08:00发射的空间技术实验卫星,国际标识1994-029A,运行在近地轨道。其轨道近地点约542公里,远地点约660公里,倾角81.94°,绕地球一圈周期约96.7分钟,每日环绕地球约14.89圈。作为美国空间试验计划组成部分,截至2025年仍在轨运行,为各类空间技术验证提供长期平台支撑。

基本信息
目录编号:
23105
目录名称:
STEP 2
国际标识:
1994-029A
轨道中心:
EARTH
卫星名称:
STEP 2
卫星全名:
--
卫星状态:
在轨 (已飞行11797 天)
发射日期:
1994-05-19 UTC
国别 :
美国 (US)
星等 :
--
轨道信息
数据来源 国际轨道数据 AOE轨道数据
星历时间 2026-09-05T09:02:41+0800
15小时前
查看轨道信息
2026-09-03T22:00:00+0800
2天前
查看轨道信息
半长轴 6972.777km 6972.763km
偏心率 0.0081823 0.0081926
轨道倾角 81.935° 81.936°
近地点辐角 357.658° 2.514°
升交点赤经 92.321° 93.813°
平近点角 2.425° 84.327°
近地点 537.586km 537.5km
远地点 651.694km 651.752km
周期 96.576分钟 96.576分钟
每日圈数 14.910565 14.910612
详细信息
使用方式:
暂无
2D轨道图
3D轨道图
轨道高度分析图
轨道倾角分析图
轨道综合分析图
查看轨道综合分析图
交会数据列表
事件ID 空间交会对象 最接近时刻(TCA) 交会距离 交会风险概率(CRP) 交会风险指数(CRI) 操作
CDM_260906-031202-310506-737125
STEP 2 (23105)
UMBRA-12 (67371)
2026-09-06T
03:12:25+0000
1.241 km
极远距离
1.277915E-5 中风险 0.57
CDM_260907-054502-310506-665923
STEP 2 (23105)
OBJECT K (66659)
2026-09-07T
05:45:35+0000
2.284 km
极远距离
1.714441E-6 低风险 0.4
CDM_260907-235702-310506-978621
STEP 2 (23105)
2026-09-07T
23:57:06+0000
2.491 km
极远距离
1.706197E-6 低风险 0.4
CDM_260906-210202-310506-145824
STEP 2 (23105)
2026-09-06T
21:02:08+0000
2.703 km
极远距离
1.541342E-6 低风险 0.39
CDM_260906-170502-310503-166622
STEP 2 (23105)
2026-09-06T
17:05:10+0000
2.137 km
极远距离
1.018482E-6 低风险 0.35